Hill City, KS

1:55 PM CDT on May 27, 2018 (GMT -0500)
Hill City Municipal

Weather History for KHLC - June, 2013

Change the Weather History Date:

Saturday, June 22, 2013

  Actual Average Record
Temperature  
Mean Temperature 85 °F 75 °F  
Max Temperature 97 °F 89 °F 105 °F (1988)
Min Temperature 72 °F 62 °F 43 °F (1985)
Cooling Degree Days 20    
Growing Degree Days 34 (Base 50)    
Moisture  
Dew Point 62 °F    
Average Humidity 49    
Maximum Humidity 73    
Minimum Humidity 32    
Precipitation  
Precipitation 0.00 in 0.10 in 1.57 in (1998)
Month to date precipitation 2.68 2.11  
Year to date precipitation 7.02 10.61  
Sea Level Pressure  
Sea Level Pressure 29.69 in    
Wind  
Wind Speed 13 mph (SSE)    
Max Wind Speed 26 mph    
Max Gust Speed 39 mph    
Visibility 10 miles    
Events      
T = Trace of Precipitation, MM = Missing Value Source: NWS Daily Summary

Daily Weather History Graph

Daily Weather History Graph

Search for Another Location

Airport or City:

Astronomy

Jun. 22, 2013 Rise Set
Actual Time 6:12 AM CDT 9:09 PM CDT
Civil Twilight 5:40 AM CDT 9:42 PM CDT
Nautical Twilight 4:59 AM CDT 10:23 PM CDT
Astronomical Twilight 4:12 AM CDT 11:10 PM CDT
Moon 8:26 PM CDT (6/22) 5:26 AM CDT (6/22)
Length of Visible Light 16h 01m
Length of Day
14h 56m
Waxing Gibbous, 99% of the Moon is Illuminated
Jun 22
Waxing Gibbous
Jun 23
Full
Jun 29
Last Quarter
Jul 8
New
Jul 15
First Quarter

Hourly Weather History & Observations

Time (CDT) Temp. Heat Index Dew Point Humidity Pressure Visibility Wind Dir Wind Speed Gust Speed Precip Events Conditions
12:53 AM 82.0 °F 83.0 °F 62.1 °F 51% 29.72 in 10.0 mi South 12.7 mph 19.6 mph N/A   Clear
1:53 AM 80.1 °F 81.2 °F 62.1 °F 54% 29.72 in 10.0 mi East 6.9 mph 16.1 mph N/A   Clear
2:53 AM 77.0 °F - 63.0 °F 62% 29.72 in 10.0 mi SSE 11.5 mph - N/A   Clear
3:53 AM 75.0 °F - 64.0 °F 69% 29.70 in 10.0 mi South 15.0 mph 23.0 mph N/A   Clear
4:53 AM 73.9 °F - 63.0 °F 68% 29.70 in 10.0 mi South 10.4 mph 21.9 mph N/A   Clear
5:53 AM 73.0 °F - 63.0 °F 71% 29.72 in 10.0 mi SSE 8.1 mph 16.1 mph N/A   Clear
6:39 AM 73.4 °F - 62.6 °F 69% 29.84 in 10.0 mi South 8.1 mph 26.5 mph N/A   Clear
6:53 AM 73.9 °F - 63.0 °F 68% 29.76 in 10.0 mi East 4.6 mph - N/A   Clear
7:53 AM 73.9 °F - 64.9 °F 73% 29.76 in 10.0 mi SE 9.2 mph - N/A   Clear
8:53 AM 75.9 °F - 64.0 °F 67% 29.74 in 10.0 mi SSE 10.4 mph 17.3 mph N/A   Clear
9:53 AM 80.1 °F 81.5 °F 63.0 °F 56% 29.71 in 10.0 mi South 20.7 mph 28.8 mph N/A   Clear
10:53 AM 86.0 °F 86.8 °F 63.0 °F 46% 29.71 in 10.0 mi South 16.1 mph 24.2 mph N/A   Clear
11:53 AM 91.0 °F 91.9 °F 63.0 °F 39% 29.71 in 10.0 mi South 15.0 mph 23.0 mph N/A   Clear
12:53 PM 91.9 °F 92.9 °F 63.0 °F 38% 29.71 in 10.0 mi South 18.4 mph 26.5 mph N/A   Clear
1:53 PM 95.0 °F 95.6 °F 62.1 °F 33% 29.69 in 10.0 mi South 21.9 mph 31.1 mph N/A   Clear
2:53 PM 95.0 °F 95.2 °F 61.0 °F 32% 29.68 in 10.0 mi South 17.3 mph 32.2 mph N/A   Partly Cloudy
3:53 PM 96.1 °F 96.9 °F 62.1 °F 32% 29.66 in 10.0 mi South 19.6 mph 32.2 mph N/A   Clear
4:53 PM 95.0 °F 95.2 °F 61.0 °F 32% 29.64 in 10.0 mi South 26.5 mph 39.1 mph N/A   Clear
5:53 PM 95.0 °F 95.6 °F 62.1 °F 33% 29.62 in 10.0 mi South 23.0 mph 32.2 mph N/A   Clear
6:53 PM 93.9 °F 93.6 °F 60.1 °F 32% 29.60 in 10.0 mi South 21.9 mph 31.1 mph N/A   Clear
7:53 PM 91.0 °F 91.5 °F 62.1 °F 38% 29.61 in 10.0 mi South 19.6 mph 28.8 mph N/A   Clear
8:53 PM 89.1 °F 89.0 °F 61.0 °F 39% 29.62 in 10.0 mi South 17.3 mph 29.9 mph N/A   Partly Cloudy
9:53 PM 88.0 °F 87.9 °F 61.0 °F 40% 29.65 in 10.0 mi South 15.0 mph 24.2 mph N/A   Clear
10:53 PM 86.0 °F 86.1 °F 61.0 °F 43% 29.66 in 10.0 mi SSE 11.5 mph 17.3 mph N/A   Clear
11:53 PM 84.0 °F 84.4 °F 61.0 °F 46% 29.63 in 10.0 mi SSE 13.8 mph 19.6 mph N/A   Clear